This is the latest recevied weather packets stored in our database for station/object K5GTX. If no packets are shown the sender has not sent any weather packets the latest 10 day(s).
| Time | Temp. | Humidity | Pressure | Rain* | Wind** | Luminosity | Snow |
|---|---|---|---|---|---|---|---|
| 1777861084 | 22.78° C | 99% | 1021.9 hPa | 0 mm | - | 0 W/m² | - |
| 1777860782 | 22.78° C | 99% | 1022.1 hPa | 0 mm | - | 0 W/m² | - |
| 1777860479 | 22.78° C | 99% | 1021.8 hPa | 0 mm | - | 0 W/m² | - |
| 1777860175 | 22.78° C | 99% | 1021.7 hPa | 0 mm | - | 0 W/m² | - |
| 1777859871 | 23.33° C | 99% | 1021.9 hPa | 0 mm | - | 0 W/m² | - |
| 1777859568 | 23.33° C | 99% | 1021.9 hPa | 0 mm | - | 0 W/m² | - |
| 1777859264 | 23.33° C | 99% | 1021.9 hPa | 0 mm | - | 0 W/m² | - |
| 1777858960 | 23.33° C | 99% | 1021.8 hPa | 0 mm | - | 0 W/m² | - |
| 1777858658 | 23.33° C | 99% | 1021.8 hPa | 0 mm | - | 0 W/m² | - |
| 1777858356 | 23.89° C | 99% | 1021.8 hPa | 0 mm | - | 0 W/m² | - |
| 1777858052 | 23.33° C | 99% | 1021.9 hPa | 0 mm | - | 0 W/m² | - |
| 1777857750 | 23.89° C | 99% | 1021.7 hPa | 0 mm | - | 0 W/m² | - |
| 1777857447 | 23.89° C | 99% | 1021.5 hPa | 0 mm | - | 0 W/m² | - |
| 1777857143 | 23.89° C | 99% | 1021.7 hPa | 0 mm | - | 0 W/m² | - |
| 1777856839 | 23.89° C | 99% | 1021.7 hPa | 0 mm | - | 1 W/m² | - |
| 1777856535 | 23.89° C | 99% | 1021.4 hPa | 0 mm | - | 4 W/m² | - |
| 1777856232 | 24.44° C | 99% | 1021.5 hPa | 0 mm | - | 4 W/m² | - |
| 1777855929 | 24.44° C | 99% | 1021.7 hPa | 0 mm | - | 5 W/m² | - |
| 1777855627 | 24.44° C | 99% | 1021.4 hPa | 0 mm | - | 9 W/m² | - |
| 1777855324 | 25° C | 99% | 1021.4 hPa | 0 mm | - | 10 W/m² | - |
| 1777855021 | 25.56° C | 99% | 1021.6 hPa | 0 mm | - | 15 W/m² | - |
| 1777854717 | 26.11° C | 99% | 1021.5 hPa | 0 mm | - | 26 W/m² | - |
| 1777854414 | 26.11° C | 99% | 1021.5 hPa | 0 mm | - | 34 W/m² | - |
| 1777854111 | 26.67° C | 99% | 1021.4 hPa | 0 mm | - | 39 W/m² | - |
| 1777853809 | 26.67° C | 99% | 1021.5 hPa | 0 mm | - | 53 W/m² | - |
* Rain latest hour (hover to see other rain measurements)
** Current wind speed in m/s (hover to see current wind gust speed)